Location: Campestrin
(46.4667°N, 11.7167°E)
Time: 16:22:08
(UTC+00:00)

Meteor 2-3 Rocket - Pass Details

Date: 18 April 2021
Orbit: 841 x 886 km, 81.2° (Epoch: 07 May)

Event Time Altitude Azimuth Distance (km) Brightness Sun altitude
Rises 20:38:24 0° 347° (NNW) 3,491 7.9 -22.9°
Reaches altitude 10° 20:40:52 10° 345° (NNW) 2,543 7.1 -23.2°
Maximum altitude 20:46:38 73° 262° (W) 911 3.8 -23.8°
Enters shadow 20:48:26 45° 191° (S) 1,174 4.1 -24.0°
